Location: Chagrin Falls Park
(41.4139°N, 81.3865°W)
Time: 01:21:27
(UTC+00:00)

STARLINK-2647 - Pass Details

Date: 31 July 2021
Orbit: 546 x 548 km, 53.1° (Epoch: 21 September)

Event Time Altitude Azimuth Distance (km) Brightness Sun altitude
Rises 01:09:46 0° 310° (NW) 2,724 9.4 -5.0°
Reaches altitude 10° 01:12:02 10° 315° (NW) 1,828 7.9 -5.4°
Maximum altitude 01:16:07 55° 33° (NNE) 665 4.0 -6.1°
Drops below altitude 10° 01:20:11 10° 112° (ESE) 1,819 5.6 -6.7°
Enters shadow 01:20:32 - 113° (ESE) 1,955 5.8 -6.8°
